Terminal Aerodrome Forecast
Issued by NWS Sterling, VA

Current Version | Previous Version | Graphics & Text | Print | Product List | Glossary On
Versions: 1 2 3 4 5 6 7 8 9 10 11 12 13 14 15 16 17 18 19 20 21 22 23 24
000
FTUS41 KLWX 260900 AAB
TAFDCA
TAF AMD
KDCA 260900Z 2609/2706 01003KT P6SM -SN SCT025 OVC050
      TEMPO 2609/2610 BKN025
     FM261000 04009KT 3SM -SN OVC020
     FM261200 01012KT 1SM -SN OVC010
     FM261700 35010KT P6SM OVC020
     FM262200 06005KT P6SM OVC025=

USA.gov is the U.S. government's official web portal to all federal, state and local government web resources and services.